Location: Rimouski
(48.4330°N, 68.5170°W)
Time: 16:28:54
(UTC-04:00)

Daily predictions for brighter satellites

Satellite Brightness Start Highest point End
(mag) Time Altitude Azimuth Time Altitude Azimuth Time Altitude Azimuth
Cosmos 2278 Rocket 3.6 20:49:13 10° SE 20:53:03 19° E 20:56:53 10° ENE
USA 186 4.4 20:55:28 10° SW 20:57:52 20° W 21:00:23 10° NW
Cosmos 1862 4.5 20:54:40 10° SSE 20:58:07 27° E 21:01:35 10° NNE
Cosmos 1356 Rocket 3.5 20:54:06 10° S 20:58:20 86° E 21:02:40 10° NNE
NOSS 2-2 (D) 3.8 20:57:35 10° SSW 21:01:37 48° ESE 21:06:22 10° NE
Gbstr 26 Del rocket 4.0 20:57:29 10° W 21:03:10 61° N 21:07:45 10° ENE
Cosmos 1844 Rocket 3.1 20:58:29 10° S 21:03:48 43° ESE 21:09:07 10° NE
SL-27 R/B 2.7 21:00:47 10° NNW 21:04:28 77° WSW 21:08:05 10° SSE
Cosmos 2074 Rocket 4.1 20:59:09 10° S 21:05:27 89° W 21:11:46 10° N
Meteor 2-3 Rocket 4.4 21:01:33 10° SSW 21:07:06 60° WNW 21:12:40 10° N
Cosmos 1825 3.3 21:03:57 10° SSE 21:07:13 27° E 21:10:30 10° NNE
COSMOS 2487 3.6 21:04:03 10° N 21:07:23 33° ENE 21:10:41 10° SE
Cosmos 2082 Rocket 3.6 21:03:06 10° NNW 21:07:56 27° NE 21:12:44 10° ESE
COS B Rocket 3.6 21:04:41 10° N 21:08:55 54° E 21:12:49 10° SSE
H-2A R/B 2.3 21:06:05 10° S 21:10:24 70° WSW 21:14:40 10° NNW
Meteor 1-27 Rocket 3.7 21:06:23 10° N 21:12:00 72° ENE 21:17:31 10° SSE
Cosmos 1610 Rocket 4.5 21:07:58 10° S 21:14:05 76° E 21:20:21 10° NNE
Nadezhda 3 Rocket 4.1 21:09:46 10° N 21:16:08 72° ENE 21:22:30 10° SSE
NOSS 2-2 (C) 3.6 21:12:06 10° SSW 21:16:15 65° SE 21:21:13 10° NE
Cosmos 2263 Rocket 3.7 21:13:49 10° WSW 21:19:10 42° NW 21:24:31 10° NNE
Cosmos 1340 Rocket 4.5 21:16:02 10° SW 21:19:46 38° WNW 21:23:34 10° N
MetOp-A 4.2 21:15:05 10° SSE 21:20:26 86° ENE 21:25:50 10° NNW
CZ-4 SHROUD 3.1 21:17:54 10° SSE 21:21:00 83° ENE 21:24:06 10° NNW
YAOGAN 6 2.5 21:17:44 10° SSE 21:21:13 70° ENE 21:24:45 10° N
Cosmos 1408 3.2 21:18:39 10° SSE 21:22:04 38° E 21:25:29 10° NNE
Cosmos 1782 3.4 21:18:50 10° NNW 21:22:48 57° W 21:26:44 10° S
Envisat 3.6 21:19:09 10° S 21:24:09 57° W 21:29:11 10° NNW
Cosmos 1624 Rocket 4.2 21:19:19 10° SSW 21:24:36 82° WNW 21:29:58 10° NNE
Cosmos 1939 Rocket 4.1 21:22:59 10° SSW 21:26:35 38° W 21:30:17 10° NNW
Cosmos 1238 Rocket 2.3 21:25:18 10° N 21:28:20 65° E 21:31:27 12° SSE
Okean 2 Rocket 3.8 21:25:30 10° SSE 21:29:32 36° E 21:33:34 10° NNE
H-2A R/B 3.0 21:25:02 11° SE 21:29:39 37° ENE 21:34:29 10° N
Cosmos 1242 Rocket 3.1 21:30:19 10° N 21:33:48 42° ENE 21:36:29 16° SE
Sich 1 Rocket 3.7 21:29:55 10° S 21:34:31 84° W 21:39:08 10° N
Elektron 3 3.8 21:32:04 10° NW 21:34:55 87° SW 21:37:39 16° SE
NOSS 2-2 (E) 3.8 21:30:57 10° SW 21:35:15 84° NW 21:40:31 10° NE
SPOT 5 3.5 21:30:06 10° S 21:35:18 63° WSW 21:40:39 10° NNW
Cosmos 1461 4.5 21:31:37 10° WSW 21:36:03 44° NW 21:40:22 10° NNE
Cosmos 1606 3.1 21:33:08 10° NNW 21:37:03 65° W 21:40:57 10° S
NOAA 11 4.3 21:32:25 11° SSE 21:37:41 73° ENE 21:43:12 10° N
Cosmos 2341 Rocket 4.1 21:31:38 10° S 21:37:52 67° E 21:44:06 10° NNE
PSLV R/B 3.8 21:35:04 10° S 21:37:56 50° W 21:40:50 10° NNW
Cosmos 407 Rocket 4.1 21:34:21 10° NNW 21:39:29 54° WSW 21:44:37 10° S
SPOT 1/Viking Rocket 3.6 21:39:32 11° SSE 21:44:37 87° WSW 21:49:53 10° NNW
Timation 2 Rocket 4.0 21:39:11 10° NNW 21:45:14 70° ENE 21:50:03 16° SE
Terra 2.6 21:42:24 15° SE 21:45:53 39° ENE 21:50:19 10° N
Cosmos 1452 Rocket 3.5 21:43:13 10° S 21:48:26 69° ESE 21:53:42 10° NNE
Cosmos 614 Rocket 4.2 21:45:53 10° NNW 21:50:55 55° ENE 21:54:35 18° SE
IGS 5A 4.3 21:48:48 17° SE 21:51:28 36° ENE 21:55:18 10° N
Cosmos 1782 Rocket 3.6 21:47:33 10° S 21:51:59 72° E 21:56:29 10° NNE
DNEPR-1 R/B 4.0 21:47:31 10° NW 21:53:20 80° NE 21:56:49 19° SE
Cosmos 1140 Rocket 3.4 21:48:48 10° NNW 21:53:59 85° ENE 21:57:55 18° SSE
Meteor 2-13 Rocket 4.5 21:52:13 10° S 21:58:19 70° E 22:04:28 10° NNE
Okean 3 4.0 21:58:17 10° NNW 22:02:32 58° W 22:06:19 12° S
SL-8 Rocket 4.1 21:57:02 12° S 22:02:50 63° E 22:09:00 10° NNE
USA 234 3.6 21:57:11 10° ENE 22:03:13 38° SE 22:09:13 10° SSW
Cosmos 1975 Rocket 3.3 21:59:52 10° NNW 22:04:10 66° W 22:07:44 15° S
CZ-4B R/B 3.4 22:03:18 10° NNE 22:08:22 87° WNW 22:13:15 10° SSW
Cosmos 2154 Rocket 4.5 22:03:06 10° SSW 22:09:15 61° WNW 22:15:24 10° N
Intercosmos 25 2.9 22:07:21 16° S 22:10:13 82° E 22:13:23 10° NNE
CARTOSAT-1 3.6 22:07:37 22° SSE 22:10:16 65° ENE 22:14:33 10° N
BREEZE-M DEB (TANK) 3.5 22:09:18 10° WSW 22:12:30 89° N 22:22:19 10° E
DMSP B5D2-2 4.5 22:07:40 10° NNE 22:12:39 44° E 22:15:45 21° SSE
SL-8 R/B 3.6 22:10:39 10° WSW 22:15:27 71° SSE 22:20:15 10° E
Cosmos 1536 Rocket 3.8 22:12:29 10° N 22:16:55 57° ENE 22:19:18 26° SSE
Meteor 1-14 Rocket 4.2 22:12:57 16° S 22:17:32 66° E 22:23:05 10° NNE
Cosmos 1850 Rocket 4.1 22:12:57 10° NNW 22:18:17 81° WSW 22:21:46 22° SSE
SL-08 RB Rocket 4.4 22:18:58 16° S 22:22:31 52° W 22:27:03 10° NNW
ATLAS 5 CENTAUR R/B 4.5 22:19:21 10° WNW 22:23:14 18° WSW 22:27:14 10° SSW
ARGOS 3.9 22:19:51 13° S 22:24:29 48° W 22:29:41 10° NNW
NOSS 5 (C) 4.1 22:22:26 10° SW 22:25:41 86° NW 22:28:50 10° NE
CZ-4 R/B 3.9 22:21:09 10° NNE 22:25:53 79° WNW 22:30:17 11° SSW
Cosmos 1184 Rocket 4.0 22:24:38 10° SSW 22:27:49 41° WNW 22:31:01 10° N
Cosmos 2151 Rocket 3.6 22:32:07 25° S 22:34:44 75° E 22:39:17 10° NNE
Cosmos 864 Rocket 4.4 22:30:33 20° S 22:34:59 74° E 22:41:09 10° NNE
Cosmos 2278 Rocket 2.3 22:30:46 10° SSW 22:36:28 78° WNW 22:42:11 10° NNE
Cosmos 1741 Rocket 4.3 22:31:35 10° NNW 22:36:45 59° WSW 22:39:49 24° S
Cosmos 1833 Rocket 2.7 22:32:12 10° NNW 22:37:51 81° ENE 22:40:56 28° SSE
Spot 2 4.4 22:35:30 10° NNE 22:39:51 49° E 22:41:20 34° SSE
Cosmos 2366 rocket 4.0 22:36:39 18° S 22:41:30 86° E 22:47:52 10° N
Cosmos 1825 4.3 22:39:38 10° SW 22:42:50 25° WNW 22:46:02 10° NNW
Cosmos 2084 3.1 22:40:05 10° SW 22:43:56 84° NW 22:47:48 10° NE
Cosmos 1844 Rocket 4.2 22:42:34 10° WSW 22:47:47 37° NW 22:53:01 10° NNE
USA 229 DEB 3.8 22:40:54 10° NW 22:48:02 81° SW 22:52:17 27° SSE
USA 229 3.8 22:41:00 10° NW 22:48:07 82° SW 22:52:24 27° SSE
Gbstr 26 Del rocket 3.2 22:45:29 10° WNW 22:50:33 73° NNE 22:53:16 22° E
Cosmos 1812 2.6 22:47:35 10° N 22:51:30 85° E 22:52:41 43° SSE
Cosmos 2082 Rocket 2.4 22:46:51 10° NNW 22:52:32 66° WSW 22:55:25 29° S
APEX 3.5 22:50:10 22° SSW 22:52:45 88° ESE 22:58:01 10° NNE
ALOS 2 4.3 22:51:03 18° E 22:52:53 23° ENE 22:56:19 10° NNE
Cosmos 1331 Rocket 4.5 22:55:56 33° SE 22:57:25 41° ESE 23:02:15 10° NE
Okean 1-7 Rocket 3.7 22:55:59 10° N 23:00:30 67° ENE 23:02:00 40° SSE
Cosmos 1110 Rocket 4.2 22:59:11 34° SSE 23:01:03 50° ESE 23:06:05 10° NNE
Iridium 4 Rocket 4.2 22:58:38 10° N 23:04:15 49° E 23:06:46 31° SE
Cosmos 1633 4.3 23:04:39 20° E 23:04:39 20° E 23:07:19 10° NE
CZ-4B R/B 3.5 23:04:54 15° ENE 23:05:19 15° ENE 23:07:12 10° NNE
NOSS 3-1 (A) 4.4 22:59:04 10° NW 23:06:16 57° NE 23:12:43 16° ESE
Okean 1 Rocket 3.2 23:05:04 42° SSE 23:06:21 60° E 23:10:47 10° NNE
Cosmos 1025 Rocket 3.8 23:03:09 10° N 23:07:19 40° ENE 23:08:31 33° ESE
Cosmos 2297 3.7 23:02:58 14° SSW 23:07:55 83° WNW 23:13:42 10° NNE
H-2A R/B 3.2 23:05:40 19° SSW 23:09:01 37° W 23:13:59 10° NNW
Cosmos 1300 Rocket 3.5 23:08:01 42° S 23:09:25 73° E 23:13:53 10° NNE
Cosmos 1536 4.0 23:11:39 27° E 23:11:52 27° E 23:15:17 10° NNE
Cosmos 1400 Rocket 3.8 23:15:25 32° ESE 23:15:42 33° E 23:19:26 10° NNE
Cosmos 1000 Rocket 4.5 23:10:16 10° N 23:16:31 80° E 23:19:28 34° SSE
Cosmos 1486 Rocket 4.0 23:13:46 10° NNW 23:19:09 81° ENE 23:21:11 39° SSE
Cosmos 1356 4.3 23:19:40 36° E 23:19:40 36° E 23:22:45 10° NNE
AVUM R/B 3.6 23:17:52 10° NW 23:21:20 55° WSW 23:21:31 54° SW
Meteor 1-19 Rocket 4.4 23:15:55 10° N 23:21:49 70° ENE 23:24:13 36° SSE
ASTEX 1 3.7 23:18:30 10° N 23:23:24 65° W 23:25:46 30° SSW
Terra 3.3 23:21:17 19° SW 23:23:44 28° W 23:27:51 10° NW
ATLAS 2AS CENTAUR R/B 4.1 23:19:40 10° NW 23:27:22 42° NNE 23:34:47 10° E
Cosmos 2098 4.3 23:33:20 81° WSW 23:33:26 83° W 23:37:10 10° N
Okean 1 4.3 23:29:47 10° NNW 23:33:35 39° W 23:34:40 32° SW
Lacrosse 5 3.5 23:35:24 20° E 23:35:24 20° E 23:37:52 10° ENE
NOSS 3-1 (C) 4.0 23:30:57 10° NW 23:38:23 88° NE 23:43:05 29° SE
BREEZE-M DEB (TANK) 2.4 23:43:19 10° WNW 23:45:59 85° NNE 23:53:28 10° E
USA 234 3.3 23:40:02 10° NE 23:46:36 80° NNW 23:53:08 10° WSW
Cosmos 2369 Rocket 3.0 23:46:17 31° ESE 23:47:05 33° ESE 23:52:04 10° NE
Meteor 2-15 4.4 23:42:45 10° N 23:48:56 85° E 23:51:18 40° SSE
Meteor 2-14 Rocket 4.4 23:46:49 40° SSE 23:49:07 70° E 23:55:14 10° NNE
CZ-4C R/B 3.0 23:55:12 78° SSW 23:55:24 84° WSW 23:59:11 10° NNW
